Other Surface Observations
Issued by NWS

Home | Current Version | Previous Version | Text Only | Print | Product List | Glossary On
Versions: 1 2 3 4 5 6 7 8 9 10 11 12 13 14 15 16 17 18 19 20 21 22 23 24 25 26 27 28 29 30 31 32 33 34 35 36 37 38 39 40 41 42 43 44 45 46 47 48 49 50
341
SXUS52 KTAE 231419
OSOTAE
OSOTAE
North Florida/South Alabama/Southwest Georgia Weather Roundup
National Weather Service Tallahassee Florida
1000 AM EDT MON OCT 23 2017

Note: "fair" indicates few or no clouds below 12,000 feet with no
significant weather and/or obstructions to visibility.

!FLZ017-115-028-034-025-231500
...North Florida...

CITY           SKY/WX    TMP DP  RH WIND       PRES   REMARKS
TALLAHASSEE    LGT RAIN  72  72 100 SE12      29.94F
APALACHICOLA   CLOUDY    79  78  97 S15       29.93R
PERRY          RAIN      73  72  94 SE8       30.00S
CROSS CITY     CLOUDY    74  73  96 SE6       30.05S FOG
JACKSONVILLE   CLOUDY    80  73  79 S12       30.02S
$$

!FLZ112-006-005-002-011-231500
...Florida Panhandle...

CITY           SKY/WX    TMP DP  RH WIND       PRES   REMARKS
MARIANNA       CLOUDY    75  74  96 S5        29.92R
BONIFAY        NOT AVBL
PANAMA CITY NW PTSUNNY   75  73  93 W16       29.92R
TYNDALL AFB    DRIZZLE   77  75  94 W16G24    29.93R
TYND DRONE APT PTSUNNY   77  75  94 NW8       29.93R
DE FUNIAK SPR  CLOUDY    69  67  93 NW8       29.96R
EGLIN AFB      MOSUNNY   71  66  82 NW14      29.95R
DESTIN         SUNNY     75  67  76 NW8       29.95R
HURLBURT       MOSUNNY   72  66  82 NW9       29.95R
CRESTVIEW      MOSUNNY   71  64  78 NW10G21   29.97R
PENSACOLA      PTSUNNY   68  62  81 NW16G25   29.99R
$$

!ALZ063-066-231500
...South Alabama...

CITY           SKY/WX    TMP DP  RH WIND       PRES   REMARKS
DOTHAN         CLOUDY    72  71  97 W15       29.96R
OZARK CAIRNS   CLOUDY    72  68  88 W10       29.93R
FT RUCKER HELI CLOUDY    72  70  94 W7        29.93R
RUCKER HELI 3  CLOUDY    72  68  88 W12       29.93S
RUCKER HELI 2  CLOUDY    70  70 100 W7        29.92R
FLORALA APT    PTSUNNY   70  65  84 VRB5      29.98R
ANDALUSIA      PTSUNNY   71  63  75 W16G23    29.96R
TROY           CLOUDY    66  65  96 W9        29.96R
EUFALA         CLOUDY    73  72  96 W8        29.90R
MOBILE         MOSUNNY   63  57  81 NW7       30.03S
$$

!GAZ120>161-231500
...Southwest and South Central Georgia...

CITY           SKY/WX    TMP DP  RH WIND       PRES   REMARKS
THOMASVILLE    RAIN      72  72 100 S14G20    29.98F
BAINBRIDGE     CLOUDY    73  73 100 SE12      29.93S
MOODY AFB      LGT RAIN  75  73  94 S10       29.97S FOG
VALDOSTA       LGT RAIN  74  73  97 S10       29.99R FOG
MOULTRIE       HVY RAIN  70  68  94 S6        30.00R
BLAKELY        HVY RAIN  73  70  88 S6        29.93R
ALBANY         CLOUDY    73  70  90 S21G26    29.95F
TIFTON         RAIN      73  73 100 S9        29.98R
FITZGERALD     LGT RAIN  75  74  98 S9        29.99S
CORDELE        LGT RAIN  78  73  85 S15       29.93F
AMERICUS       CLOUDY    72  72 100 S12G22    29.92F
HOMERVILLE     LGT RAIN  73  72  94 S8        30.00S
$$

!GMZ750-755-770-775-231500
...Coastal and Buoy Obs...

STATION/POSITION TIME  TEMP    WIND        PRES    VSBY  WAVE
                       AIR SEA DIR/SP/G                  HT/PER
                 (UTC) (F)     (DEG/KT/KT) (MB)    (MI)  (FT/S)
KEATON BEACH     1400   74     130/  7/  9 1015.2F
CEDAR KEY        1400   77     180/ 15/ 18 1017.0R
C TOWER          1400   80     200/ 27/ 29 1013.7R
APALACHICOLA BUO 1350   78 80  180/ 23/ 27 1014.5R         7/ 6
PANAMA CITY BUOY 1350   79 81  290/ 19/ 23 1013.9R         7/ 8
MOBILE BUOY      1400   72 81  310/ 21/ 25 1016.7
ORANGE BCH AL BU 1350      78  260/ 21/ 27 1015.0R         5/ 8
$$




USA.gov is the U.S. government's official web portal to all federal, state and local government web resources and services.